Find CZ-2C sep motor cover

NORAD ID: 100368 Int'l Des: 2026-187 Owner: CNSA Country: CN operational
別名: OBJECT C spacetrack, celestrak

現在のビュー

3D地球を読み込み中...

About CZ-2C sep motor cover

CZ-2C sep motor cover (NORAD 100368) is a satellite launched Aug 17, 2026 by CNSA of CN. with a mass of 1.00 kg.

次回通過

Passes for default location (London). Set your location on the main map for personalized predictions.

高度履歴

Loading altitude history...

軌道要素

1 A0368U 26188C 26264.19119627 .00048475 00000-0 16216-2 0 9994
2 A0368 97.5243 333.6536 0023254 190.0629 170.0149 15.30557603 5362
Epoch: Sep 21, 2026 • Age: 9 hours

現在のステータス

高度 492.9 km
遠地点 / 近地点 N/A
速度 7.61 km/s
衛星直下点 0.30°N, 123.48°E
打ち上げ日 Aug 17, 2026
運用期間 35 days
タイプ other

技術仕様

分類 Component
質量 1.00 kg
乾燥質量 1.00 kg
総質量 1.00 kg
長さ 0.20 m
直径 0.20 m
スパン 0.20 m
形状 Cone
フェーズステータス In Orbit
所有者/国 CNSA/CN

Most Searched